Retour au catalogue

STARLINK-30338

ActifCommunicationsVLEO
NORAD 57718·PAYLOAD·🇺🇸 United States

Lancé Aug 27, 2023 depuis Cape Canaveral Space Force Station

Loading…

Prochains Passages (prochaines 24 heures)

TLE

FraisSource: CelesTrak SupGP

Époque: Sep 15, 2026, 02:53 UTC

1 57718C 23129W   26258.12062500  .00059630  00000+0  21596-2 0  2589
2 57718  42.9996 128.3809 0001200 278.5843 320.9692 15.27551612    17

Suivez STARLINK-30338 en temps réel avec AllMySat

Download on the App Store